Weather History for Fayetteville, AR

Change the Weather History Date:

Thursday, February 7, 2013

  Actual Average Record
Temperature  
Mean Temperature 51 °F 38 °F  
Max Temperature 58 °F 49 °F 70 °F (1950)
Min Temperature 44 °F 27 °F -1 °F (1985)
Degree Days  
Heating Degree Days 14 27  
Month to date heating degree days 153 194  
Since 1 July heating degree days 2486 2788  
Moisture  
Dew Point 48 °F    
Average Humidity 84    
Maximum Humidity 100    
Minimum Humidity 68    
Precipitation  
Precipitation 0.32 in 0.09 in 0.41 in (1957)
Month to date precipitation 0.38 0.62  
Year to date precipitation 3.41 3.46  
Sea Level Pressure  
Sea Level Pressure 29.94 in    
Wind  
Wind Speed 8 mph (SSW)    
Max Wind Speed 17 mph    
Max Gust Speed 24 mph    
Visibility 8 miles    
Events Rain , Thunderstorm    
T = Trace of Precipitation, MM = Missing Value Source: NWS Daily Summary

Daily Weather History Graph

Daily Weather History Graph

Search for Another Location

Airport:

Trip Planner

Search our weather history database for the weather conditions in past years. The results will help you decide how hot, cold, wet, or windy it might be!

Date:

Astronomy

Feb. 07, 2013 Rise Set
Actual Time 7:11 AM CST 5:50 PM CST
Civil Twilight 6:45 AM CST 6:16 PM CST
Nautical Twilight 6:14 AM CST 6:47 PM CST
Astronomical Twilight 5:44 AM CST 7:17 PM CST
Moon 4:49 AM CST (2/7) 3:18 PM CST (2/7)
Length of Visible Light 11h 31m
Length of Day
10h 38m
Waning Crescent, 9% of the Moon is Illuminated
Feb 7
Waning Crescent
Feb 10
New
Feb 17
First Quarter
Feb 25
Full
Mar 4
Last Quarter

Hourly Weather History & Observations

Time (CST) Temp. Windchill Dew Point Humidity Pressure Visibility Wind Dir Wind Speed Gust Speed Precip Events Conditions
12:53 AM 51.1 °F - 45.0 °F 80% 29.94 in 10.0 mi SSE 8.1 mph - N/A   Overcast
1:01 AM 51.8 °F - 46.4 °F 82% 29.95 in 10.0 mi SSE 11.5 mph 17.3 mph N/A   Overcast
1:42 AM 53.6 °F - 48.2 °F 82% 29.94 in 10.0 mi South 10.4 mph - N/A   Overcast
1:53 AM 53.1 °F - 48.9 °F 86% 29.93 in 10.0 mi SSE 9.2 mph - N/A   Overcast
2:53 AM 53.1 °F - 50.0 °F 89% 29.92 in 9.0 mi South 13.8 mph 20.7 mph N/A   Overcast
3:53 AM 52.0 °F - 48.9 °F 89% 29.91 in 10.0 mi SSW 9.2 mph - N/A   Overcast
4:34 AM 51.8 °F - 48.2 °F 88% 29.91 in 9.0 mi SSW 11.5 mph - N/A   Overcast
4:53 AM 52.0 °F - 48.0 °F 86% 29.90 in 8.0 mi South 13.8 mph - N/A   Overcast
5:53 AM 52.0 °F - 48.0 °F 86% 29.89 in 10.0 mi SSW 6.9 mph - N/A   Overcast
6:38 AM 50.0 °F - 46.4 °F 87% 29.88 in 10.0 mi South 3.5 mph - N/A   Scattered Clouds
6:53 AM 50.0 °F - 46.9 °F 89% 29.88 in 10.0 mi SSE 3.5 mph - N/A   Clear
7:53 AM 50.0 °F - 46.9 °F 89% 29.90 in 10.0 mi Calm Calm - N/A   Clear
8:53 AM 52.0 °F - 46.9 °F 83% 29.90 in 10.0 mi SSE 4.6 mph - N/A   Clear
9:14 AM 53.6 °F - 48.2 °F 82% 29.91 in 10.0 mi South 9.2 mph - N/A   Mostly Cloudy
9:53 AM 55.0 °F - 50.0 °F 83% 29.90 in 10.0 mi South 12.7 mph - N/A   Overcast
10:28 AM 57.2 °F - 50.0 °F 77% 29.91 in 10.0 mi SW 5.8 mph - N/A   Overcast
10:51 AM 57.2 °F - 50.0 °F 77% 29.93 in 10.0 mi SW 8.1 mph - N/A   Overcast
10:53 AM 55.9 °F - 50.0 °F 80% 29.93 in 10.0 mi SW 9.2 mph - N/A   Overcast
11:51 AM 53.6 °F - 51.8 °F 94% 29.92 in 6.0 mi SSW 5.8 mph - 0.00 in Rain , Thunderstorm Light Thunderstorms and Rain
11:53 AM 54.0 °F - 51.1 °F 90% 29.91 in 5.0 mi SSW 4.6 mph - 0.00 in Rain , Thunderstorm Light Thunderstorms and Rain
12:06 PM 53.6 °F - 51.8 °F 94% 29.92 in 4.0 mi SSW 4.6 mph - 0.00 in Rain , Thunderstorm Light Rain
12:27 PM 53.6 °F - 51.8 °F 94% 29.90 in 10.0 mi South 8.1 mph - 0.00 in   Overcast
12:53 PM 54.0 °F - 52.0 °F 93% 29.88 in 10.0 mi South 4.6 mph - 0.00 in   Overcast
1:53 PM 55.0 °F - 52.0 °F 89% 29.86 in 10.0 mi SSE 6.9 mph - N/A   Overcast
2:53 PM 55.9 °F - 52.0 °F 87% 29.86 in 10.0 mi SW 4.6 mph - 0.00 in   Overcast
3:25 PM 53.6 °F - 53.6 °F 100% 29.88 in 2.0 mi NW 4.6 mph - 0.03 in Rain Light Rain
3:53 PM 54.0 °F - 53.1 °F 97% 29.88 in 1.5 mi NNW 6.9 mph - 0.06 in Rain Rain
4:53 PM 52.0 °F - 51.1 °F 97% 29.91 in 2.0 mi NNW 11.5 mph - 0.01 in Rain Light Rain
5:53 PM 51.1 °F - 50.0 °F 96% 29.93 in 5.0 mi North 5.8 mph - 0.03 in Rain Light Rain
6:53 PM 50.0 °F - 48.9 °F 96% 29.97 in 3.0 mi North 8.1 mph - 0.12 in Rain Heavy Rain
7:38 PM 48.2 °F - 48.2 °F 100% 29.99 in 10.0 mi NNW 9.2 mph - 0.09 in Rain Light Rain
7:53 PM 50.0 °F - 48.0 °F 93% 30.01 in 7.0 mi NNW 12.7 mph - 0.09 in   Overcast
8:37 PM 48.2 °F - 46.4 °F 93% 30.00 in 7.0 mi North 9.2 mph 18.4 mph 0.01 in Rain Light Rain
8:53 PM 46.9 °F - 46.0 °F 97% 30.01 in 4.0 mi North 15.0 mph 19.6 mph 0.01 in   Overcast
9:53 PM 46.0 °F 41.9 °F 44.1 °F 93% 30.04 in 5.0 mi North 8.1 mph - N/A   Overcast
10:36 PM 46.4 °F 41.9 °F 42.8 °F 87% 30.06 in 6.0 mi North 9.2 mph 20.7 mph N/A   Overcast
10:53 PM 46.0 °F 43.9 °F 42.1 °F 86% 30.06 in 9.0 mi North 4.6 mph - N/A   Overcast
11:01 PM 44.6 °F 39.7 °F 41.0 °F 87% 30.06 in 9.0 mi North 9.2 mph - N/A   Overcast
11:53 PM 45.0 °F 41.2 °F 39.9 °F 82% 30.08 in 10.0 mi Variable 6.9 mph - N/A   Overcast